• In Uzbekistan
  • List of Countries
  • For 7 days
  • Water Temperature
  • Satellite Maps
  • Weather Map
  • Weather Widgets
  • user-avatar
    Login

    Hourly Weather Malbun

    Today, 18 November, Sunday

    Time Temperature Precipitation Wind Pressure Humidity
    00:00 -4°C° 0 mm 2 mps 633 mmHg 70%
    01:00 -4°C° 0 mm 2 mps 633 mmHg 70%
    02:00 -5°C° 0 mm 2 mps 633 mmHg 70%
    03:00 -5°C° 0 mm 2 mps 632 mmHg 71%
    04:00 -5°C° 0 mm 2 mps 632 mmHg 71%
    05:00 -3°C° 0 mm 1 mps 632 mmHg 71%
    06:00 -4°C° 0 mm 1 mps 632 mmHg 70%
    07:00 -4°C° 0 mm 1 mps 631 mmHg 70%
    08:00 -2°C° 0 mm 1 mps 632 mmHg 64%
    09:00 -1°C° 0 mm 1 mps 632 mmHg 59%
    10:00 +1°C° 0 mm 1 mps 632 mmHg 54%
    11:00 +1°C° 0 mm 1 mps 632 mmHg 52%
    12:00 +2°C° 0 mm 1 mps 632 mmHg 50%
    13:00 +3°C° 0 mm 1 mps 632 mmHg 49%
    14:00 +1°C° 0 mm 2 mps 631 mmHg 54%
    15:00 -1°C° 0 mm 2 mps 630 mmHg 60%
    16:00 -2°C° 0 mm 2 mps 630 mmHg 66%
    17:00 -3°C° 0 mm 2 mps 629 mmHg 72%
    18:00 -4°C° 0 mm 2 mps 629 mmHg 79%
    19:00 -6°C° 0 mm 2 mps 628 mmHg 85%
    20:00 -6°C° 0 mm 2 mps 628 mmHg 86%
    21:00 -5°C° 0 mm 2 mps 628 mmHg 86%
    22:00 -5°C° 0 mm 2 mps 627 mmHg 87%
    23:00 -5°C° 0.1 mm 2 mps 627 mmHg 87%

    Tomorrow, 19 November, Monday

    Time Temperature Precipitation Wind Pressure Humidity
    00:00 -5°C° 0.1 mm 2 mps 627 mmHg 88%
    01:00 -6°C° 0.1 mm 2 mps 627 mmHg 89%
    02:00 -6°C° 0.2 mm 2 mps 626 mmHg 89%
    03:00 -6°C° 0.2 mm 2 mps 626 mmHg 88%
    04:00 -6°C° 0.2 mm 2 mps 626 mmHg 88%
    05:00 -6°C° 0.1 mm 2 mps 625 mmHg 87%
    06:00 -6°C° 0.1 mm 2 mps 625 mmHg 87%
    07:00 -6°C° 0.1 mm 2 mps 625 mmHg 87%
    08:00 -5°C° 0.1 mm 2 mps 625 mmHg 81%
    09:00 -5°C° 0.1 mm 2 mps 625 mmHg 76%
    10:00 -4°C° 0.1 mm 2 mps 625 mmHg 71%
    11:00 -4°C° 0 mm 3 mps 625 mmHg 67%
    12:00 -2°C° 0 mm 3 mps 625 mmHg 64%
    13:00 -2°C° 0 mm 3 mps 625 mmHg 61%
    14:00 -2°C° 0.1 mm 3 mps 624 mmHg 64%
    15:00 -3°C° 0.1 mm 2 mps 624 mmHg 67%
    16:00 -4°C° 0.1 mm 2 mps 623 mmHg 71%
    17:00 -4°C° 0 mm 2 mps 623 mmHg 73%
    18:00 -5°C° 0 mm 2 mps 623 mmHg 76%
    19:00 -6°C° 0 mm 2 mps 622 mmHg 79%
    20:00 -6°C° 0 mm 2 mps 622 mmHg 78%
    21:00 -6°C° 0 mm 2 mps 622 mmHg 78%
    22:00 -7°C° 0 mm 2 mps 622 mmHg 77%
    23:00 -6°C° 0.1 mm 2 mps 622 mmHg 75%

    Day after tomorrow, 20 November, Tuesday

    Time Temperature Precipitation Wind Pressure Humidity
    00:00 -6°C° 0.1 mm 2 mps 621 mmHg 73%
    01:00 -6°C° 0.1 mm 2 mps 621 mmHg 72%
    02:00 -6°C° 0.2 mm 2 mps 621 mmHg 72%
    03:00 -6°C° 0.2 mm 2 mps 620 mmHg 73%
    04:00 -6°C° 0.2 mm 2 mps 620 mmHg 74%
    05:00 -3°C° 0.2 mm 1 mps 619 mmHg 75%
    06:00 -3°C° 0.2 mm 1 mps 619 mmHg 76%
    07:00 -3°C° 0.2 mm 1 mps 618 mmHg 77%
    08:00 -2°C° 0.2 mm 1 mps 618 mmHg 77%
    09:00 -2°C° 0.2 mm 1 mps 618 mmHg 76%
    10:00 -1°C° 0.2 mm 1 mps 618 mmHg 75%
    11:00 0°C° 0.2 mm 1 mps 618 mmHg 74%
    12:00 -2°C° 0.2 mm 2 mps 618 mmHg 72%
    13:00 -1°C° 0.2 mm 2 mps 619 mmHg 71%
    14:00 -2°C° 0 mm 2 mps 619 mmHg 74%
    15:00 -2°C° 0 mm 2 mps 619 mmHg 77%
    16:00 -3°C° 0 mm 2 mps 619 mmHg 80%
    17:00 -4°C° 0 mm 2 mps 619 mmHg 82%
    18:00 -5°C° 0 mm 2 mps 619 mmHg 85%
    19:00 -6°C° 0 mm 2 mps 619 mmHg 87%
    20:00 -6°C° 0 mm 2 mps 620 mmHg 84%
    21:00 -6°C° 0 mm 2 mps 620 mmHg 81%
    22:00 -6°C° 0 mm 2 mps 621 mmHg 78%
    23:00 -6°C° 0 mm 2 mps 621 mmHg 76%

    21 November, Wednesday

    Time Temperature Precipitation Wind Pressure Humidity
    00:00 -6°C° 0 mm 2 mps 622 mmHg 75%
    01:00 -6°C° 0 mm 2 mps 622 mmHg 73%
    02:00 -6°C° 0 mm 2 mps 622 mmHg 74%
    03:00 -6°C° 0 mm 2 mps 622 mmHg 74%
    04:00 -6°C° 0 mm 2 mps 622 mmHg 74%
    05:00 -6°C° 0 mm 2 mps 623 mmHg 74%
    06:00 -6°C° 0 mm 2 mps 623 mmHg 74%
    07:00 -6°C° 0 mm 2 mps 623 mmHg 75%
    08:00 -4°C° 0 mm 2 mps 624 mmHg 72%
    09:00 -3°C° 0 mm 2 mps 625 mmHg 68%
    10:00 -1°C° 0 mm 2 mps 626 mmHg 65%
    11:00 +2°C° 0.1 mm 1 mps 626 mmHg 65%
    12:00 +3°C° 0.1 mm 1 mps 626 mmHg 65%
    13:00 +4°C° 0.1 mm 1 mps 627 mmHg 66%
    14:00 +3°C° 0 mm 1 mps 627 mmHg 71%
    15:00 +2°C° 0 mm 1 mps 627 mmHg 76%
    16:00 +1°C° 0 mm 1 mps 627 mmHg 81%
    17:00 0°C° 0 mm 1 mps 627 mmHg 83%
    18:00 -1°C° 0 mm 1 mps 627 mmHg 85%
    19:00 -1°C° 0 mm 1 mps 627 mmHg 86%
    20:00 -3°C° 0 mm 2 mps 627 mmHg 85%
    21:00 -4°C° 0 mm 2 mps 627 mmHg 84%
    22:00 -4°C° 0 mm 2 mps 627 mmHg 84%
    23:00 -4°C° 0 mm 2 mps 627 mmHg 83%

    22 November, Thursday

    Time Temperature Precipitation Wind Pressure Humidity
    00:00 -4°C° 0 mm 2 mps 628 mmHg 82%
    01:00 -4°C° 0 mm 2 mps 628 mmHg 82%
    02:00 -4°C° 0 mm 2 mps 628 mmHg 82%
    03:00 -4°C° 0 mm 2 mps 628 mmHg 82%
    04:00 -4°C° 0 mm 2 mps 628 mmHg 82%
    05:00 -4°C° 0 mm 2 mps 628 mmHg 82%
    06:00 -3°C° 0 mm 2 mps 628 mmHg 82%
    07:00 -1°C° 0 mm 1 mps 628 mmHg 82%
    08:00 0°C° 0 mm 1 mps 629 mmHg 79%
    09:00 +1°C° 0 mm 1 mps 629 mmHg 75%
    10:00 +2°C° 0 mm 1 mps 630 mmHg 72%
    11:00 +3°C° 0 mm 1 mps 630 mmHg 70%
    12:00 +4°C° 0 mm 1 mps 630 mmHg 68%
    13:00 +5°C° 0 mm 1 mps 631 mmHg 65%
    14:00 +4°C° 0 mm 1 mps 630 mmHg 71%
    15:00 +3°C° 0 mm 1 mps 630 mmHg 77%
    16:00 +2°C° 0 mm 1 mps 630 mmHg 83%
    17:00 +1°C° 0 mm 1 mps 630 mmHg 84%
    18:00 0°C° 0 mm 1 mps 630 mmHg 85%
    19:00 -1°C° 0 mm 1 mps 630 mmHg 86%
    20:00 -2°C° 0 mm 1 mps 630 mmHg 85%
    21:00 -4°C° 0 mm 2 mps 631 mmHg 83%
    22:00 -4°C° 0 mm 2 mps 631 mmHg 82%
    23:00 -4°C° 0 mm 2 mps 631 mmHg 81%

    23 November, Friday

    Time Temperature Precipitation Wind Pressure Humidity
    00:00 -5°C° 0 mm 2 mps 631 mmHg 79%
    01:00 -5°C° 0 mm 2 mps 631 mmHg 78%
    02:00 -4°C° 0 mm 2 mps 631 mmHg 77%
    03:00 -4°C° 0 mm 2 mps 631 mmHg 75%
    04:00 -4°C° 0 mm 2 mps 631 mmHg 74%
    05:00 -4°C° 0 mm 2 mps 631 mmHg 74%
    06:00 -3°C° 0 mm 2 mps 631 mmHg 74%
    07:00 -3°C° 0 mm 2 mps 632 mmHg 74%
    08:00 0°C° 0 mm 1 mps 632 mmHg 72%
    09:00 +1°C° 0 mm 1 mps 632 mmHg 70%
    10:00 +2°C° 0 mm 1 mps 633 mmHg 68%
    11:00 +3°C° 0 mm 1 mps 633 mmHg 66%
    12:00 +4°C° 0 mm 1 mps 633 mmHg 65%
    13:00 +4°C° 0 mm 1 mps 633 mmHg 63%
    14:00 +3°C° 0 mm 1 mps 633 mmHg 68%
    15:00 +1°C° 0 mm 0 mps 632 mmHg 73%
    16:00 0°C° 0 mm 0 mps 632 mmHg 79%
    17:00 0°C° 0.1 mm 0 mps 632 mmHg 81%
    18:00 -1°C° 0.1 mm 0 mps 632 mmHg 82%
    19:00 -1°C° 0.1 mm 1 mps 632 mmHg 84%
    20:00 -1°C° 0 mm 1 mps 632 mmHg 84%
    21:00 -1°C° 0 mm 1 mps 632 mmHg 84%
    22:00 -1°C° 0 mm 1 mps 632 mmHg 84%
    23:00 -1°C° 0 mm 1 mps 632 mmHg 84%
    Show more